Regional Weather Roundup
Issued by NWS

Home | Current Version | Previous Version | Text Only | Print | Product List | Glossary On
Versions: 1 2 3 4 5 6 7 8 9 10 11 12 13 14 15 16 17 18 19 20 21 22 23 24 25 26 27 28 29 30 31 32 33 34 35 36 37 38 39 40 41 42 43 44 45 46 47 48 49 50
000
ASUS44 KFWD 210303
RWRTX
NORTH TEXAS HOURLY WEATHER ROUNDUP
NATIONAL WEATHER SERVICE FORT WORTH TX
1000 PM CDT MON APR 20 2015

NOTE: "FAIR" INDICATES FEW OR NO CLOUDS BELOW 12,000 FEET WITH NO
SIGNIFICANT WEATHER AND/OR OBSTRUCTIONS TO VISIBILITY.

TXZ118-119-210400-
DALLAS/FORT WORTH METROPLEX

CITY           SKY/WX    TMP DP  RH WIND       PRES   REMARKS
DFW AIRPORT    PTCLDY    61  42  49 NE3       29.99R
DALLAS LOVE    MOCLDY    64  41  42 CALM      30.00R
FTW MEACHAM    CLEAR     63  40  42 E5        29.99R
DAL-EXECUTIVE  CLEAR     56  41  57 CALM      30.00R
FTW-ALLIANCE   PTCLDY    53  47  79 CALM      29.99R
FTW-NAS-JRB    CLEAR     63  41  44 E3        30.04R
FTW-SPINKS     CLEAR     51  46  83 CALM      30.02R
ARLINGTON      PTCLDY    53  46  77 CALM      30.00R
GRAND PRAIRIE  CLEAR     61  44  54 CALM      30.02R
ADDISON        CLEAR     64  36  34 CALM      30.00R
MESQUITE       CLEAR     58  47  66 CALM      30.00R
LANCASTER      PTCLDY    53  47  82 CALM      30.01R
$$

TXZ091>094-102>105-117-120-121-131>134-210400-
NORTH CENTRAL TEXAS

CITY           SKY/WX    TMP DP  RH WIND       PRES   REMARKS
SHRMAN/DENISON CLEAR     57  48  71 CALM      30.02R
GAINESVILLE    CLEAR     57  46  66 CALM      30.03R
BOWIE          CLEAR     51  48  87 CALM      30.01R
BRIDGEPORT     CLEAR     54  47  77 CALM      30.02R
DECATUR        CLEAR     59  40  49 SE5       30.00R
DENTON         CLEAR     56  48  74 E3        30.00R
MCKINNEY       CLEAR     57  46  66 CALM      30.00R
GREENVILLE     CLEAR     54  50  87 CALM      30.00R
ROCKWALL       CLEAR     59  45  59 CALM      29.99R
TERRELL        CLEAR     58  50  75 CALM      30.01R
WAXAHACHIE     PTCLDY    54  48  80 CALM      30.01R
CLEBURNE       PTCLDY    61  41  48 CALM      30.02R
GRANBURY         N/A     57  47  69 CALM      30.02R
$$

TXZ083>090-098>101-113>116-127>130-139>142-154-155-210400-
WESTERN NORTH TEXAS

CITY           SKY/WX    TMP DP  RH WIND       PRES   REMARKS
WICHITA FALLS  CLEAR     53  41  63 SE8       29.98R
WF-KICKAPOO    CLEAR     58  40  51 E7        30.00R
VERNON         CLEAR     59  36  42 SE10      29.98R
ABILENE        CLEAR     57  42  57 SE9       29.96R
ABILENE-DYESS  CLEAR     60  45  56 SE8       29.95R
BRECKENRIDGE   CLEAR     60  38  42 SE7       29.97R
GRAHAM         CLEAR     54  44  68 E3        29.98R
MINERAL WELLS  CLEAR     55  45  68 SE7       29.98R
STEPHENVILLE   PTCLDY    57  41  55 SE5       30.02R
COMANCHE       PTCLDY    57  44  61 SE7       30.00R
COLEMAN        PTCLDY    60  44  54 SE7       29.98R
BRADY          CLEAR     59  45  58 SE5       29.98R
$$

TXZ143>147-156>162-174-175-210400-
CENTRAL TEXAS

CITY           SKY/WX    TMP DP  RH WIND       PRES   REMARKS
WACO           CLOUDY    59  46  62 CALM      30.00R
WACO-TSTC      CLEAR     55  50  82 CALM      30.01R
WACO-MCGREGOR  CLOUDY    59  43  55 CALM      30.02R
HILLSBORO      MOCLDY    56  44  64 E7        30.01R
CORSICANA      MOCLDY    60  54  80 CALM      30.01R
MEXIA          CLOUDY    59  46  61 MISG      30.00R
HEARNE         CLOUDY    62  52  71 CALM      30.01R
CAMERON        CLOUDY    63  55  76 CALM      30.01R
TEMPLE         CLOUDY    61  45  55 E3        30.00R
KILLEEN        CLOUDY    61  45  56 SE10      30.00R
KILLEEN-SKYLRK CLOUDY    63  45  51 SE6       29.99S
FORT HOOD      CLOUDY    61  46  56 SE6       30.00R
GATESVILLE     CLOUDY    61  46  59 CALM      30.03R
HAMILTON       MOCLDY    59  42  52 SE6       30.02R
LAMPASAS       CLOUDY    59  47  64 E3        30.00R
$$

TXZ095>097-106>112-122>126-135>138-148>153-164>167-210400-
EAST TEXAS

CITY           SKY/WX    TMP DP  RH WIND       PRES   REMARKS
PARIS          CLEAR     57  39  51 MISG      30.01R
SULPHUR SPRNGS   N/A     58  47  68 CALM      30.03R
MOUNT PLEASANT CLEAR     56  48  76 CALM      30.02R
GILMER         PTCLDY    53  47  79 CALM      30.00R
TYLER          PTCLDY    59  47  64 CALM      30.00R
LONGVIEW       MOCLDY    57  50  77 CALM      29.99R
MARSHALL       PTCLDY    56  52  86 CALM      30.01R
ATHENS         MOCLDY    54  48  82 CALM      30.00R
PALESTINE      CLOUDY    55  39  54 CALM      30.00R
JACKSONVILLE   CLOUDY    63  40  42 CALM      30.02R
HENDERSON      MOCLDY    55  51  89 CALM      30.00R
NACOGDOCHES    CLOUDY    55  48  76 CALM      30.00R
LUFKIN         CLOUDY    62  53  72 CALM      30.00R
$$

SUPPLEMENTAL OBSERVATIONS (CENTRAL)

CITY           SKY/WX    TMP DP  RH WIND       PRES   REMARKS
$$

SUPPLEMENTAL OBSERVATIONS (WEST)

CITY           SKY/WX    TMP DP  RH WIND       PRES   REMARKS
$$

SUPPLEMENTAL OBSERVATIONS (EAST)

CITY           SKY/WX    TMP DP  RH WIND       PRES   REMARKS
$$

SUPPLEMENTAL OBSERVATIONS ARE A COLLECTION OF AUTOMATED INSTRUMENTS
THAT ARE MAINTAINED BY A VARIETY OF FEDERAL AND STATE AGENCIES.
CERTAIN ELEMENTS...SUCH AS HUMIDITY VALUES AND SUSTAINED WIND
SPEEDS...MAY BE APPROXIMATED.



USA.gov is the U.S. government's official web portal to all federal, state and local government web resources and services.